KX4BE Weather Reports


Display with metric or nautical units.
time (UTC)temp
F
wind
direction
speed
MPH
gust
MPH
rain 1hr
in
rain 24hr
in
rain mn
in
humidity
%
barometer
mb
20260906220334 93 355 1.0 5.0 0.00 0.00 0.00 56 1012.6
20260906215850 93 22 2.0 9.0 0.00 0.00 0.00 57 1012.6
20260906215347 93 56 3.0 9.0 0.00 0.00 0.00 56 1012.4
20260906214904 93 62 2.0 9.0 0.00 0.00 0.00 57 1012.4
20260906214341 94 261 2.0 9.0 0.00 0.00 0.00 56 1012.4
20260906213838 94 276 3.0 10.0 0.00 0.00 0.00 56 1012.3
20260906213334 94 318 2.0 5.0 0.00 0.00 0.00 56 1012.3
20260906212830 95 24 2.0 5.0 0.00 0.00 0.00 54 1012.2
20260906212350 95 306 1.0 5.0 0.00 0.00 0.00 53 1012.1
20260906211844 95 251 2.0 5.0 0.00 0.00 0.00 54 1012.1
20260906211403 94 324 1.0 3.0 0.00 0.00 0.00 53 1012.1
20260906210840 94 49 1.0 4.0 0.00 0.00 0.00 54 1012.1
20260906210335 94 269 2.0 5.0 0.00 0.00 0.00 55 1012.0
20260906205837 94 308 1.0 5.0 0.00 0.00 0.00 57 1012.1
20260906205336 94 5 1.0 5.0 0.00 0.00 0.00 57 1012.2
20260906204830 94 292 2.0 5.0 0.00 0.00 0.00 54 1012.2
20260906204329 95 5 1.0 6.0 0.00 0.00 0.00 54 1012.2
20260906203848 95 72 0.0 4.0 0.00 0.00 0.00 54 1012.4
20260906203344 95 73 2.0 4.0 0.00 0.00 0.00 52 1012.4
20260906202901 96 37 0.0 5.0 0.00 0.00 0.00 54 1012.4
20260906202340 96 41 1.0 6.0 0.00 0.00 0.00 52 1012.4
20260906201856 97 355 2.0 6.0 0.00 0.00 0.00 52 1012.4
20260906201332 97 44 2.0 6.0 0.00 0.00 0.00 52 1012.5
20260906200850 98 46 2.0 8.0 0.00 0.00 0.00 52 1012.6
20260906200405 98 30 3.0 8.0 0.00 0.00 0.00 52 1012.7
20260906195841 98 57 2.0 6.0 0.00 0.00 0.00 50 1012.8
20260906195340 98 17 2.0 8.0 0.00 0.00 0.00 52 1012.9
20260906194858 99 345 3.0 8.0 0.00 0.00 0.00 49 1013.0
20260906194355 98 9 1.0 6.0 0.00 0.00 0.00 52 1013.1
20260906193849 98 75 3.0 6.0 0.00 0.00 0.00 52 1013.2
20260906193346 97 83 3.0 5.0 0.00 0.00 0.00 52 1013.2
20260906192844 97 227 1.0 3.0 0.00 0.00 0.00 52 1013.3
20260906192343 97 277 1.0 3.0 0.00 0.00 0.00 52 1013.3
20260906191840 96 15 1.0 4.0 0.00 0.00 0.00 54 1013.4
20260906191344 96 28 1.0 4.0 0.00 0.00 0.00 56 1013.6
20260906190840 95 207 0.0 3.0 0.00 0.00 0.00 56 1013.7
20260906190336 94 209 0.0 3.0 0.00 0.16 0.00 57 1013.8
20260906185833 93 333 1.0 2.0 0.00 0.16 0.00 62 1013.9
20260906185332 93 333 0.0 2.0 0.00 0.16 0.00 60 1014.1
20260906184831 94 42 0.0 2.0 0.00 0.16 0.00 60 1014.2
20260906184331 94 42 0.0 2.0 0.00 0.16 0.00 57 1014.2
20260906183848 94 42 1.0 3.0 0.00 0.16 0.00 58 1014.2
20260906183341 94 42 0.0 3.0 0.00 0.16 0.00 59 1014.1
20260906182837 95 42 1.0 3.0 0.00 0.16 0.00 58 1014.2
20260906182337 95 41 2.0 5.0 0.00 0.16 0.00 57 1014.3
20260906181835 96 205 1.0 8.0 0.00 0.16 0.00 57 1014.3
20260906181335 96 170 3.0 9.0 0.00 0.16 0.00 55 1014.3
20260906180853 96 235 4.0 10.0 0.00 0.16 0.00 56 1014.4
20260906180348 95 99 5.0 10.0 0.00 0.39 0.00 57 1014.4
20260906175847 95 88 3.0 8.0 0.00 0.39 0.00 57 1014.6
20260906175406 94 127 4.0 8.0 0.00 0.39 0.00 58 1014.6
20260906174841 94 76 4.0 8.0 0.00 0.39 0.00 58 1014.7
20260906174340 94 148 3.0 8.0 0.00 0.39 0.00 58 1014.8
20260906173838 94 112 3.0 9.0 0.00 0.39 0.00 59 1015.0
20260906173334 94 55 4.0 9.0 0.00 0.39 0.00 57 1015.1
20260906172830 94 225 2.0 9.0 0.00 0.39 0.00 58 1015.0
20260906172349 94 181 2.0 8.0 0.00 0.39 0.00 59 1015.2
20260906171847 94 159 4.0 8.0 0.00 0.39 0.00 59 1015.2
20260906171345 94 137 3.0 8.0 0.00 0.39 0.00 59 1015.2
20260906170903 94 188 3.0 8.0 0.00 0.39 0.00 58 1015.2
20260906170339 93 92 4.0 8.0 0.00 0.39 0.00 60 1015.4
20260906165837 93 89 3.0 5.0 0.00 0.39 0.00 60 1015.4
20260906165335 93 122 2.0 8.0 0.00 0.39 0.00 61 1015.5
20260906164851 93 111 4.0 8.0 0.00 0.39 0.00 60 1015.6
20260906164349 92 76 3.0 7.0 0.00 0.39 0.00 61 1015.6
20260906163907 92 46 2.0 8.0 0.00 0.39 0.00 61 1015.7
20260906163402 93 178 4.0 7.0 0.00 0.39 0.00 61 1015.7
20260906162858 92 43 1.0 7.0 0.00 0.39 0.00 63 1015.8
20260906162336 92 190 1.0 6.0 0.00 0.39 0.00 62 1015.8
20260906161831 93 224 2.0 6.0 0.00 0.39 0.00 61 1015.8
20260906161335 93 89 3.0 6.0 0.00 0.39 0.00 61 1015.9
20260906160851 93 78 2.0 6.0 0.00 0.39 0.00 60 1015.9
20260906160348 92 355 3.0 6.0 0.00 0.39 0.00 62 1015.8
20260906155842 92 71 3.0 7.0 0.00 0.39 0.00 62 1015.9
20260906155341 92 136 4.0 7.0 0.00 0.39 0.00 63 1015.9
20260906154834 91 75 1.0 5.0 0.00 0.39 0.00 63 1016.0
20260906154332 91 171 1.0 5.0 0.00 0.39 0.00 63 1016.0
20260906153912 91 184 2.0 5.0 0.00 0.39 0.00 65 1016.0
20260906153406 91 138 1.0 5.0 0.00 0.39 0.00 64 1016.1
20260906152843 90 68 2.0 5.0 0.00 0.39 0.00 64 1016.1
20260906152341 90 100 3.0 4.0 0.00 0.39 0.00 67 1016.0
20260906151837 89 105 1.0 3.0 0.00 0.39 0.00 67 1016.0
20260906151335 89 102 1.0 3.0 0.00 0.39 0.00 68 1016.0
20260906150852 88 197 2.0 3.0 0.00 0.39 0.00 68 1016.0
20260906150409 88 11 0.0 3.0 0.00 0.39 0.00 69 1016.0
20260906145846 87 5 1.0 3.0 0.00 0.39 0.00 70 1016.0
20260906145404 87 89 2.0 4.0 0.00 0.39 0.00 71 1016.1
20260906144840 86 85 2.0 4.0 0.00 0.39 0.00 72 1016.1
20260906144339 85 104 1.0 4.0 0.00 0.39 0.00 74 1016.1
20260906143835 85 329 3.0 4.0 0.00 0.39 0.00 74 1016.2
20260906143411 85 298 1.0 3.0 0.00 0.39 0.00 74 1016.1
20260906142830 84 113 0.0 4.0 0.00 0.39 0.00 78 1016.1
20260906142349 84 136 2.0 4.0 0.00 0.39 0.00 77 1016.2
20260906141845 83 184 2.0 4.0 0.00 0.39 0.00 78 1016.1
20260906141344 83 196 2.0 5.0 0.00 0.39 0.00 78 1016.1
20260906140900 82 200 1.0 3.0 0.00 0.39 0.00 80 1016.2
20260906140353 82 195 1.0 3.0 0.00 0.39 0.00 80 1016.1
20260906135910 81 213 327.0 327.0 0.00 0.00 0.00 81 1015.6
20260906135330 81 221 1.0 3.0 0.00 0.39 0.00 82 1016.1
20260906134847 81 223 1.0 4.0 0.00 0.39 0.00 82 1016.1
20260906134338 80 223 1.0 4.0 0.00 0.39 0.00 83 1016.1
20260906133854 80 192 1.0 5.0 0.00 0.39 0.00 84 1016.2
20260906133329 80 200 2.0 5.0 0.00 0.39 0.00 84 1016.1
20260906132847 79 206 0.0 3.0 0.00 0.39 0.00 86 1016.2
20260906132346 79 207 0.0 3.0 0.00 0.39 0.00 87 1016.4
20260906131843 79 207 1.0 3.0 0.00 0.39 0.00 86 1016.3
20260906131402 78 209 1.0 5.0 0.00 0.39 0.00 86 1016.3
20260906130839 78 205 2.0 5.0 0.00 0.39 0.00 87 1016.3
20260906130333 77 355 1.0 3.0 0.00 0.39 0.00 88 1016.2
20260906125848 77 360 1.0 2.0 0.00 0.39 0.00 89 1016.2
20260906125347 76 186 1.0 2.0 0.00 0.39 0.00 90 1016.2
20260906124844 76 207 0.0 3.0 0.00 0.39 0.00 91 1016.1
20260906124347 75 209 0.0 3.0 0.00 0.39 0.00 92 1016.2
20260906123845 75 221 0.0 5.0 0.00 0.39 0.00 92 1016.1
20260906123341 75 187 1.0 5.0 0.00 0.39 0.00 92 1016.0
20260906122835 74 231 1.0 4.0 0.00 0.39 0.00 93 1016.0
20260906122334 74 192 0.0 3.0 0.00 0.39 0.00 93 1016.0
20260906121831 74 216 0.0 1.0 0.00 0.39 0.00 93 1016.0
20260906121329 74 216 0.0 2.0 0.00 0.39 0.00 93 1015.9
20260906120848 74 216 0.0 1.0 0.00 0.39 0.00 92 1015.9
20260906120344 74 216 0.0 1.0 0.00 0.39 0.00 92 1015.9
20260906115841 74 216 0.0 2.0 0.00 0.39 0.00 92 1015.8
20260906115339 74 216 0.0 2.0 0.00 0.39 0.00 92 1015.8
20260906114856 74 216 1.0 2.0 0.00 0.39 0.00 92 1015.7
20260906114334 74 216 0.0 1.0 0.00 0.39 0.00 92 1015.6
20260906113851 74 216 0.0 1.0 0.00 0.39 0.00 91 1015.7
20260906113347 75 216 0.0 3.0 0.00 0.39 0.00 91 1015.5
20260906112843 74 216 1.0 3.0 0.00 0.39 0.00 91 1015.4
20260906112346 74 232 0.0 1.0 0.00 0.39 0.00 91 1015.4
20260906111841 74 232 0.0 3.0 0.00 0.39 0.00 91 1015.3
20260906111340 75 232 1.0 3.0 0.00 0.39 0.00 91 1015.4
20260906110836 75 211 0.0 2.0 0.00 0.39 0.00 91 1015.2
20260906110332 75 200 0.0 2.0 0.00 0.39 0.00 91 1015.1
20260906105831 75 200 0.0 3.0 0.00 0.39 0.00 91 1015.1
20260906105330 75 200 0.0 4.0 0.00 0.39 0.00 90 1015.0
20260906104845 75 210 1.0 4.0 0.00 0.39 0.00 90 1014.9
20260906104344 75 209 0.0 1.0 0.00 0.39 0.00 90 1014.8
20260906103842 75 209 0.0 2.0 0.00 0.39 0.00 90 1014.8
20260906103337 75 209 0.0 2.0 0.00 0.39 0.00 90 1014.8
20260906102835 75 209 0.0 0.0 0.00 0.39 0.00 90 1014.8
20260906102334 75 209 0.0 0.0 0.00 0.39 0.00 90 1014.7
20260906101851 75 209 0.0 0.0 0.00 0.39 0.00 89 1014.8
20260906101407 75 209 0.0 0.0 0.00 0.39 0.00 90 1014.8
20260906100903 75 209 0.0 3.0 0.00 0.39 0.00 89 1014.8
20260906100338 75 209 0.0 4.0 0.00 0.39 0.00 89 1014.9
20260906095839 75 211 1.0 4.0 0.00 0.39 0.00 89 1015.0
20260906095338 76 204 0.0 2.0 0.00 0.39 0.00 89 1014.9
20260906094836 76 204 0.0 2.0 0.00 0.39 0.00 89 1015.1
20260906094335 76 204 0.0 2.0 0.00 0.39 0.00 89 1015.3
20260906093913 76 204 0.0 2.0 0.00 0.39 0.00 89 1015.3
20260906093348 76 204 0.0 1.0 0.00 0.39 0.00 89 1015.4
20260906092905 76 204 0.0 1.0 0.00 0.39 0.00 88 1015.4
20260906092344 76 294 0.0 1.0 0.00 0.39 0.00 89 1015.5
20260906091842 76 294 0.0 1.0 0.00 0.39 0.00 89 1015.6
20260906091340 76 294 0.0 2.0 0.00 0.39 0.00 88 1015.7
20260906090837 76 294 0.0 2.0 0.00 0.39 0.00 87 1015.6
20260906090332 76 38 0.0 2.0 0.00 0.39 0.00 88 1015.8
20260906085849 76 38 0.0 2.0 0.00 0.39 0.00 87 1015.7
20260906085348 76 38 0.0 3.0 0.00 0.39 0.00 87 1015.7
20260906084846 76 42 1.0 6.0 0.00 0.39 0.00 87 1015.9
20260906084344 76 26 1.0 6.0 0.00 0.39 0.00 88 1015.9
20260906083844 76 5 1.0 4.0 0.00 0.39 0.00 87 1015.9
20260906083340 76 70 1.0 3.0 0.00 0.39 0.00 87 1015.9
20260906082915 76 78 1.0 4.0 0.00 0.39 0.00 87 1015.8
20260906082348 76 36 1.0 4.0 0.00 0.39 0.00 87 1015.8
20260906081906 76 212 0.0 0.0 0.00 0.39 0.00 87 1015.6
20260906081343 76 212 0.0 1.0 0.00 0.39 0.00 87 1015.6
20260906080902 76 212 0.0 5.0 0.00 0.39 0.00 87 1015.8
20260906080336 76 212 2.0 5.0 0.00 0.39 0.00 86 1015.4
20260906075830 76 211 1.0 3.0 0.00 0.39 0.00 86 1015.3
20260906075349 76 211 0.0 3.0 0.00 0.39 0.00 86 1015.3
20260906074846 76 211 0.0 3.0 0.00 0.39 0.00 86 1015.0
20260906074345 76 211 2.0 4.0 0.00 0.39 0.00 86 1014.9
20260906073842 76 207 2.0 4.0 0.00 0.39 0.00 87 1014.9
20260906073338 76 211 2.0 4.0 0.00 0.39 0.00 87 1014.8
20260906072834 76 271 1.0 6.0 0.00 0.39 0.00 87 1014.8
20260906072333 76 185 2.0 5.0 0.00 0.39 0.00 87 1014.9
20260906071830 75 193 2.0 3.0 0.00 0.39 0.00 88 1014.9
20260906071349 75 188 0.0 3.0 0.00 0.39 0.00 90 1014.9
20260906070848 75 188 1.0 3.0 0.00 0.39 0.00 91 1015.2
20260906070343 75 172 1.0 2.0 0.00 0.39 0.00 92 1015.5
20260906065844 75 196 1.0 3.0 0.00 0.39 0.00 92 1015.5
20260906065401 75 126 0.0 2.0 0.00 0.39 0.00 92 1016.0
20260906064838 75 126 1.0 2.0 0.00 0.39 0.00 92 1016.2
20260906064337 75 132 1.0 2.0 0.00 0.39 0.00 93 1016.0
20260906063833 75 131 0.0 2.0 0.00 0.39 0.00 94 1015.7
20260906063408 75 131 0.0 3.0 0.00 0.39 0.00 94 1015.8
20260906062846 75 131 1.0 3.0 0.00 0.39 0.00 94 1015.7
20260906062344 75 131 0.0 0.0 0.00 0.39 0.00 94 1015.6
20260906061859 75 131 0.0 0.0 0.00 0.39 0.00 94 1015.9
20260906061336 75 131 0.0 0.0 0.00 0.39 0.00 94 1015.9
20260906060834 75 131 0.0 0.0 0.00 0.39 0.00 94 1015.7
20260906060410 75 131 0.0 0.0 0.00 0.39 0.00 94 1015.5
20260906055846 75 131 0.0 0.0 0.00 0.39 0.00 94 1015.5
20260906055345 75 131 0.0 0.0 0.00 0.39 0.00 94 1015.4
20260906054840 75 131 0.0 0.0 0.00 0.39 0.00 94 1015.3
20260906054339 75 131 0.0 0.0 0.00 0.39 0.00 93 1015.3
20260906053837 75 131 0.0 0.0 0.00 0.39 0.00 93 1015.4
20260906053333 75 131 0.0 0.0 0.00 0.39 0.00 93 1015.4
20260906052830 75 131 0.0 0.0 0.00 0.39 0.00 93 1015.3
20260906052334 75 131 0.0 0.0 0.00 0.39 0.00 93 1015.3
20260906051907 75 131 0.0 0.0 0.00 0.39 0.00 93 1015.3
20260906051347 75 131 0.0 0.0 0.00 0.39 0.00 93 1015.4
20260906050844 75 131 0.0 0.0 0.00 0.39 0.00 93 1015.5
20260906050359 75 131 0.0 0.0 0.00 0.39 0.00 93 1015.5
20260906045833 75 131 0.0 0.0 0.00 0.39 0.00 93 1015.6
20260906045333 75 131 0.0 0.0 0.00 0.39 0.00 93 1015.6
20260906044831 76 131 0.0 0.0 0.00 0.39 0.00 92 1015.8
20260906044349 76 131 0.0 0.0 0.00 0.39 0.00 92 1015.8
20260906043844 76 131 0.0 0.0 0.00 0.39 0.00 92 1016.0
20260906043339 76 131 0.0 0.0 0.00 0.39 0.00 92 1015.9
20260906042838 76 131 0.0 0.0 0.00 0.39 0.00 92 1015.7
20260906042336 76 131 0.0 0.0 0.00 0.39 0.00 92 1015.8
20260906041854 76 131 0.0 0.0 0.00 0.39 0.00 92 1015.8
20260906041333 76 131 0.0 0.0 0.00 0.39 0.00 92 1015.7
20260906040848 76 131 0.0 0.0 0.00 0.39 0.00 92 1015.8
20260906040344 76 131 0.0 0.0 0.00 0.39 0.39 93 1015.9
20260906035843 77 131 0.0 0.0 0.00 0.39 0.39 93 1015.9
20260906035342 77 131 0.0 0.0 0.00 0.00 0.39 92 1015.5
20260906034841 77 131 0.0 0.0 0.00 0.39 0.39 92 1015.8
20260906034339 77 131 0.0 0.0 0.00 0.39 0.39 92 1015.9
20260906033858 77 131 0.0 0.0 0.00 0.39 0.39 91 1016.0
20260906033329 77 131 0.0 0.0 0.00 0.39 0.39 91 1016.1
20260906032846 77 131 0.0 0.0 0.00 0.39 0.39 92 1016.0
20260906032405 77 131 0.0 0.0 0.00 0.39 0.39 92 1016.0
20260906031842 77 131 0.0 0.0 0.00 0.39 0.39 92 1016.0
20260906031342 77 131 0.0 0.0 0.00 0.39 0.39 92 1015.8
20260906030840 77 131 0.0 0.0 0.00 0.39 0.39 91 1015.8
20260906030335 78 131 0.0 0.0 0.00 0.39 0.39 91 1016.0
20260906025831 78 131 0.0 0.0 0.00 0.39 0.39 91 1016.1
20260906025349 78 131 0.0 0.0 0.00 0.39 0.39 91 1016.0
20260906024847 78 131 0.0 0.0 0.00 0.39 0.39 90 1016.0
20260906024345 78 131 0.0 0.0 0.00 0.39 0.39 89 1015.9
20260906023844 78 131 0.0 0.0 0.00 0.39 0.39 88 1015.7
20260906023339 78 131 0.0 0.0 0.00 0.39 0.39 88 1015.6
20260906022834 78 131 0.0 0.0 0.00 0.39 0.39 88 1015.5
20260906022338 78 131 0.0 0.0 0.00 0.39 0.39 89 1015.4
20260906021835 78 131 0.0 0.0 0.00 0.39 0.39 88 1015.4
20260906021335 78 131 0.0 0.0 0.00 0.39 0.39 87 1015.4
20260906020852 78 131 0.0 0.0 0.00 0.39 0.39 89 1015.5
20260906020348 78 131 0.0 0.0 0.00 0.39 0.39 88 1015.4
20260906015845 79 131 0.0 0.0 0.00 0.39 0.39 87 1015.4
20260906015342 79 131 0.0 0.0 0.00 0.39 0.39 87 1015.4
20260906014838 79 131 0.0 0.0 0.00 0.39 0.39 86 1015.2
20260906014338 79 131 0.0 0.0 0.00 0.39 0.39 87 1015.1
20260906013836 79 131 0.0 0.0 0.00 0.39 0.39 86 1015.2
20260906013352 79 131 0.0 0.0 0.00 0.39 0.39 85 1015.2
20260906012848 79 131 0.0 0.0 0.00 0.39 0.39 85 1015.1
20260906012348 79 131 0.0 0.0 0.00 0.39 0.39 85 1015.0
20260906011844 79 131 0.0 1.0 0.00 0.39 0.39 86 1015.0
20260906011343 79 131 0.0 1.0 0.00 0.39 0.39 85 1015.0
20260906010840 80 131 0.0 0.0 0.00 0.39 0.39 86 1015.2
20260906010357 80 131 0.0 0.0 0.00 0.39 0.39 85 1015.0
20260906005838 80 131 0.0 0.0 0.00 0.39 0.39 85 1014.8
20260906005337 80 131 0.0 0.0 0.00 0.39 0.39 85 1014.8
20260906004852 80 131 0.0 0.0 0.00 0.39 0.39 84 1014.8
20260906004330 80 131 0.0 0.0 0.00 0.39 0.39 84 1014.8
20260906003849 80 131 0.0 1.0 0.00 0.39 0.39 84 1014.7
20260906003345 80 131 0.0 1.0 0.00 0.39 0.39 82 1014.7
20260906002842 81 131 0.0 1.0 0.00 0.39 0.39 81 1014.7
20260906002341 81 131 0.0 1.0 0.00 0.39 0.39 81 1014.7
20260906001838 81 131 0.0 0.0 0.00 0.39 0.39 80 1014.7
20260906001335 81 131 0.0 0.0 0.00 0.39 0.39 80 1014.7
20260906000852 82 131 0.0 0.0 0.00 0.39 0.39 80 1014.7
20260906000407 82 131 0.0 1.0 0.00 0.39 0.39 78 1014.7
20260905235843 82 131 0.0 1.0 0.00 0.39 0.39 79 1014.7
20260905235343 83 131 0.0 1.0 0.00 0.39 0.39 78 1014.8
20260905234841 83 131 0.0 0.0 0.00 0.39 0.39 77 1014.9
20260905234340 83 131 0.0 1.0 0.00 0.39 0.39 76 1014.8
20260905233837 83 131 0.0 3.0 0.00 0.39 0.39 76 1015.1
20260905233336 84 131 1.0 3.0 0.00 0.39 0.39 75 1014.8
20260905232832 84 131 1.0 2.0 0.00 0.39 0.39 75 1014.8
20260905232331 84 131 0.0 3.0 0.00 0.39 0.39 75 1015.0
20260905231830 84 131 1.0 3.0 0.00 0.39 0.39 75 1014.8
20260905231349 84 131 0.0 0.0 0.00 0.39 0.39 73 1014.6
20260905230845 85 131 0.0 0.0 0.00 0.39 0.39 73 1014.5
20260905230340 85 131 0.0 0.0 0.00 0.39 0.39 72 1014.2
20260905225837 85 131 0.0 0.0 0.00 0.39 0.39 72 1014.1
20260905225335 85 131 0.0 0.0 0.00 0.39 0.39 71 1014.3
20260905224346 86 131 0.0 4.0 0.00 0.39 0.39 69 1014.4
20260905223843 87 92 3.0 4.0 0.00 0.39 0.39 68 1014.4
20260905223335 87 91 2.0 3.0 0.00 0.39 0.39 68 1014.4
20260905222834 87 89 2.0 3.0 0.00 0.39 0.39 67 1014.5
20260905222336 87 90 1.0 4.0 0.00 0.39 0.39 67 1014.5
20260905221834 87 62 1.0 4.0 0.00 0.39 0.39 68 1014.5
20260905221353 87 91 0.0 3.0 0.00 0.39 0.39 66 1014.6
20260905220911 88 92 1.0 4.0 0.00 0.39 0.39 67 1014.7